Time,TemperatureF,DewpointF,PressureIn,WindDirection,WindDirectionDegrees,WindSpeedMPH,WindSpeedGustMPH,Humidity,HourlyPrecipIn,Conditions,Clouds,dailyrainin,SoftwareType,DateUTC
2013-05-06 00:01:00,43.0,39.0,-100.00,NE,44,2.0,3.0,86,-99.99,,,-99.99,,2013-05-06 07:01:00,
2013-05-06 00:11:00,43.0,39.0,-100.00,NE,44,2.0,3.0,86,-99.99,,,-99.99,,2013-05-06 07:11:00,
2013-05-06 00:22:00,43.0,39.0,-100.00,NE,44,2.0,3.0,86,-99.99,,,-99.99,,2013-05-06 07:22:00,
2013-05-06 00:32:00,43.0,39.0,-100.00,North,10,1.0,2.0,86,-99.99,,,-99.99,,2013-05-06 07:32:00,
2013-05-06 00:42:00,43.0,39.0,-100.00,North,10,1.0,2.0,86,-99.99,,,-99.99,,2013-05-06 07:42:00,
2013-05-06 00:52:00,43.0,39.0,-100.00,North,6,1.0,3.0,87,-99.99,,,-99.99,,2013-05-06 07:52:00,
2013-05-06 01:01:00,43.0,39.0,-100.00,North,6,1.0,3.0,87,-99.99,,,-99.99,,2013-05-06 08:01:00,
2013-05-06 01:12:00,43.0,39.0,-100.00,NE,56,1.0,2.0,87,-99.99,,,-99.99,,2013-05-06 08:12:00,
2013-05-06 01:22:00,43.0,39.0,-100.00,NE,56,1.0,2.0,87,-99.99,,,-99.99,,2013-05-06 08:22:00,
2013-05-06 01:31:00,43.0,39.0,-100.00,North,10,2.0,5.0,87,-99.99,,,-99.99,,2013-05-06 08:31:00,
2013-05-06 01:41:00,43.0,39.0,-100.00,North,10,2.0,5.0,87,-99.99,,,-99.99,,2013-05-06 08:41:00,
2013-05-06 01:52:00,43.0,39.0,-100.00,WNW,292,1.0,5.0,84,-99.99,,,-99.99,,2013-05-06 08:52:00,
2013-05-06 02:01:00,43.0,39.0,-100.00,WNW,292,1.0,5.0,84,-99.99,,,-99.99,,2013-05-06 09:01:00,
2013-05-06 02:11:00,44.0,39.0,-100.00,West,275,1.0,5.0,82,-99.99,,,-99.99,,2013-05-06 09:11:00,
2013-05-06 02:22:00,44.0,39.0,-100.00,West,275,1.0,5.0,82,-99.99,,,-99.99,,2013-05-06 09:22:00,
2013-05-06 02:32:00,43.0,39.0,-100.00,WNW,298,3.0,7.0,85,-99.99,,,-99.99,,2013-05-06 09:32:00,
2013-05-06 02:42:00,43.0,39.0,-100.00,WNW,298,3.0,7.0,85,-99.99,,,-99.99,,2013-05-06 09:42:00,
2013-05-06 02:53:00,41.0,38.0,-100.00,NW,322,2.0,6.0,88,-99.99,,,-99.99,,2013-05-06 09:53:00,
2013-05-06 03:02:00,41.0,38.0,-100.00,NW,322,2.0,6.0,88,-99.99,,,-99.99,,2013-05-06 10:02:00,
2013-05-06 03:12:00,39.0,36.0,-100.00,NNE,18,3.0,6.0,90,-99.99,,,-99.99,,2013-05-06 10:12:00,
2013-05-06 03:22:00,39.0,36.0,-100.00,NNE,18,3.0,6.0,90,-99.99,,,-99.99,,2013-05-06 10:22:00,
2013-05-06 03:32:00,39.0,37.0,-100.00,ESE,110,1.0,3.0,93,-99.99,,,-99.99,,2013-05-06 10:32:00,
2013-05-06 03:41:00,39.0,37.0,-100.00,ESE,110,1.0,3.0,93,-99.99,,,-99.99,,2013-05-06 10:41:00,
2013-05-06 03:52:00,39.0,37.0,-100.00,SE,128,3.0,8.0,92,-99.99,,,-99.99,,2013-05-06 10:52:00,
2013-05-06 04:02:00,39.0,37.0,-100.00,SE,128,3.0,8.0,92,-99.99,,,-99.99,,2013-05-06 11:02:00,
2013-05-06 04:12:00,39.0,36.0,-100.00,WNW,301,2.0,6.0,88,-99.99,,,-99.99,,2013-05-06 11:12:00,
2013-05-06 04:22:00,39.0,36.0,-100.00,WNW,301,2.0,6.0,88,-99.99,,,-99.99,,2013-05-06 11:22:00,
2013-05-06 04:31:00,39.0,37.0,-100.00,SE,128,2.0,5.0,92,-99.99,,,-99.99,,2013-05-06 11:31:00,
2013-05-06 04:42:00,39.0,37.0,-100.00,SE,128,2.0,5.0,92,-99.99,,,-99.99,,2013-05-06 11:42:00,
2013-05-06 04:52:00,39.0,37.0,-100.00,East,100,0.0,2.0,92,-99.99,,,-99.99,,2013-05-06 11:52:00,
2013-05-06 05:01:00,39.0,37.0,-100.00,East,100,0.0,2.0,92,-99.99,,,-99.99,,2013-05-06 12:01:00,
2013-05-06 05:12:00,38.0,37.0,-100.00,SW,224,1.0,3.0,94,-99.99,,,-99.99,,2013-05-06 12:12:00,
2013-05-06 05:21:00,38.0,37.0,-100.00,SW,224,1.0,3.0,94,-99.99,,,-99.99,,2013-05-06 12:21:00,
2013-05-06 05:32:00,38.0,37.0,-100.00,SW,224,1.0,3.0,94,-99.99,,,-99.99,,2013-05-06 12:32:00,
2013-05-06 05:41:00,38.0,37.0,-100.00,SW,224,1.0,3.0,94,-99.99,,,-99.99,,2013-05-06 12:41:00,
2013-05-06 05:52:00,36.0,35.0,-100.00,South,175,2.0,6.0,94,-99.99,,,-99.99,,2013-05-06 12:52:00,
2013-05-06 06:01:00,36.0,35.0,-100.00,South,175,2.0,6.0,94,-99.99,,,-99.99,,2013-05-06 13:01:00,
2013-05-06 06:11:00,36.0,35.0,-100.00,SSE,148,1.0,3.0,94,-99.99,,,-99.99,,2013-05-06 13:11:00,
2013-05-06 06:21:00,36.0,35.0,-100.00,SSE,148,1.0,3.0,94,-99.99,,,-99.99,,2013-05-06 13:21:00,
2013-05-06 06:31:00,36.0,35.0,-100.00,SSE,148,1.0,3.0,94,-99.99,,,-99.99,,2013-05-06 13:31:00,
2013-05-06 06:42:00,36.0,35.0,-100.00,SSE,148,1.0,3.0,94,-99.99,,,-99.99,,2013-05-06 13:42:00,
2013-05-06 06:52:00,36.0,35.0,-100.00,NNE,31,1.0,4.0,93,-99.99,,,-99.99,,2013-05-06 13:52:00,
2013-05-06 07:01:00,36.0,35.0,-100.00,NNE,31,1.0,4.0,93,-99.99,,,-99.99,,2013-05-06 14:01:00,
2013-05-06 07:11:00,36.0,35.0,-100.00,NNE,31,1.0,4.0,93,-99.99,,,-99.99,,2013-05-06 14:11:00,
2013-05-06 07:21:00,36.0,35.0,-100.00,NNE,31,1.0,4.0,93,-99.99,,,-99.99,,2013-05-06 14:21:00,
2013-05-06 07:32:00,34.0,33.0,-100.00,East,96,1.0,4.0,94,-99.99,,,-99.99,,2013-05-06 14:32:00,
2013-05-06 07:42:00,34.0,33.0,-100.00,East,96,1.0,4.0,94,-99.99,,,-99.99,,2013-05-06 14:42:00,
2013-05-06 07:52:00,34.0,33.0,-100.00,NNE,13,0.0,2.0,95,-99.99,,,-99.99,,2013-05-06 14:52:00,
2013-05-06 08:01:00,34.0,33.0,-100.00,NNE,13,0.0,2.0,95,-99.99,,,-99.99,,2013-05-06 15:01:00,
2013-05-06 08:11:00,34.0,33.0,-100.00,NNE,13,0.0,2.0,95,-99.99,,,-99.99,,2013-05-06 15:11:00,
2013-05-06 08:21:00,34.0,33.0,-100.00,NNE,13,0.0,2.0,95,-99.99,,,-99.99,,2013-05-06 15:21:00,
2013-05-06 08:43:00,34.0,33.0,-100.00,NE,41,0.0,1.0,96,-99.99,,,-99.99,,2013-05-06 15:43:00,
2013-05-06 08:53:00,34.0,33.0,-100.00,ESE,110,1.0,4.0,96,-99.99,,,-99.99,,2013-05-06 15:53:00,
2013-05-06 09:03:00,34.0,33.0,-100.00,ESE,110,1.0,4.0,96,-99.99,,,-99.99,,2013-05-06 16:03:00,
2013-05-06 09:13:00,34.0,33.0,-100.00,ESE,110,1.0,4.0,96,-99.99,,,-99.99,,2013-05-06 16:13:00,
2013-05-06 09:23:00,34.0,33.0,-100.00,ESE,110,1.0,4.0,96,-99.99,,,-99.99,,2013-05-06 16:23:00,
2013-05-06 09:33:00,33.0,32.0,-100.00,NNW,328,1.0,3.0,96,-99.99,,,-99.99,,2013-05-06 16:33:00,
2013-05-06 09:42:00,33.0,32.0,-100.00,NNW,328,1.0,3.0,96,-99.99,,,-99.99,,2013-05-06 16:42:00,
2013-05-06 09:52:00,33.0,33.0,-100.00,NNE,16,1.0,4.0,97,-99.99,,,-99.99,,2013-05-06 16:52:00,
2013-05-06 10:02:00,33.0,33.0,-100.00,NNE,16,1.0,4.0,97,-99.99,,,-99.99,,2013-05-06 17:02:00,
2013-05-06 10:12:00,33.0,33.0,-100.00,NNE,16,1.0,4.0,97,-99.99,,,-99.99,,2013-05-06 17:12:00,
2013-05-06 10:23:00,33.0,33.0,-100.00,NNE,16,1.0,4.0,97,-99.99,,,-99.99,,2013-05-06 17:23:00,
2013-05-06 10:52:00,35.0,35.0,-100.00,NW,304,0.0,1.0,97,-99.99,,,-99.99,,2013-05-06 17:52:00,
2013-05-06 11:01:00,35.0,35.0,-100.00,NW,304,0.0,1.0,97,-99.99,,,-99.99,,2013-05-06 18:01:00,
2013-05-06 11:12:00,35.0,35.0,-100.00,NW,304,0.0,1.0,97,-99.99,,,-99.99,,2013-05-06 18:12:00,
2013-05-06 11:21:00,35.0,35.0,-100.00,NW,304,0.0,1.0,97,-99.99,,,-99.99,,2013-05-06 18:21:00,
2013-05-06 11:52:00,38.0,36.0,-100.00,West,278,2.0,4.0,91,-99.99,,,-99.99,,2013-05-06 18:52:00,
2013-05-06 12:01:00,38.0,36.0,-100.00,West,278,2.0,4.0,91,-99.99,,,-99.99,,2013-05-06 19:01:00,
2013-05-06 12:11:00,38.0,36.0,-100.00,West,278,2.0,4.0,91,-99.99,,,-99.99,,2013-05-06 19:11:00,
2013-05-06 12:22:00,38.0,36.0,-100.00,West,278,2.0,4.0,91,-99.99,,,-99.99,,2013-05-06 19:22:00,
2013-05-06 12:32:00,39.0,37.0,-100.00,SW,222,2.0,4.0,90,-99.99,,,-99.99,,2013-05-06 19:32:00,
2013-05-06 12:42:00,39.0,37.0,-100.00,SW,222,2.0,4.0,90,-99.99,,,-99.99,,2013-05-06 19:42:00,
2013-05-06 12:52:00,39.0,37.0,-100.00,West,270,2.0,3.0,92,-99.99,,,-99.99,,2013-05-06 19:52:00,
2013-05-06 13:01:00,39.0,37.0,-100.00,West,270,2.0,3.0,92,-99.99,,,-99.99,,2013-05-06 20:01:00,
2013-05-06 13:11:00,39.0,37.0,-100.00,West,270,2.0,3.0,92,-99.99,,,-99.99,,2013-05-06 20:11:00,
2013-05-06 13:21:00,39.0,37.0,-100.00,West,270,2.0,3.0,92,-99.99,,,-99.99,,2013-05-06 20:21:00,
2013-05-06 13:32:00,39.0,37.0,-100.00,West,264,2.0,3.0,91,-99.99,,,-99.99,,2013-05-06 20:32:00,
2013-05-06 13:42:00,39.0,37.0,-100.00,West,264,2.0,3.0,91,-99.99,,,-99.99,,2013-05-06 20:42:00,
2013-05-06 13:52:00,40.0,37.0,-100.00,West,260,0.0,2.0,90,-99.99,,,-99.99,,2013-05-06 20:52:00,
2013-05-06 14:01:00,40.0,37.0,-100.00,West,260,0.0,2.0,90,-99.99,,,-99.99,,2013-05-06 21:01:00,
2013-05-06 14:11:00,40.0,37.0,-100.00,West,260,0.0,2.0,90,-99.99,,,-99.99,,2013-05-06 21:11:00,
2013-05-06 14:21:00,40.0,37.0,-100.00,West,260,0.0,2.0,90,-99.99,,,-99.99,,2013-05-06 21:21:00,
2013-05-06 14:33:00,40.0,38.0,-100.00,East,80,0.0,3.0,90,-99.99,,,-99.99,,2013-05-06 21:33:00,
2013-05-06 14:43:00,40.0,38.0,-100.00,East,80,0.0,3.0,90,-99.99,,,-99.99,,2013-05-06 21:43:00,
2013-05-06 14:53:00,40.0,37.0,-100.00,SE,126,2.0,4.0,89,-99.99,,,-99.99,,2013-05-06 21:53:00,
2013-05-06 15:03:00,40.0,37.0,-100.00,SE,126,2.0,4.0,89,-99.99,,,-99.99,,2013-05-06 22:03:00,
2013-05-06 15:12:00,40.0,37.0,-100.00,SE,126,2.0,4.0,89,-99.99,,,-99.99,,2013-05-06 22:12:00,
2013-05-06 15:22:00,40.0,37.0,-100.00,SE,126,2.0,4.0,89,-99.99,,,-99.99,,2013-05-06 22:22:00,
2013-05-06 15:33:00,41.0,37.0,-100.00,South,178,1.0,3.0,86,-99.99,,,-99.99,,2013-05-06 22:33:00,
2013-05-06 15:45:00,41.0,37.0,-100.00,South,178,1.0,3.0,86,-99.99,,,-99.99,,2013-05-06 22:45:00,
2013-05-06 15:52:00,40.0,36.0,-100.00,SSE,157,5.0,11.0,86,-99.99,,,-99.99,,2013-05-06 22:52:00,
2013-05-06 16:02:00,40.0,36.0,-100.00,SSE,157,5.0,11.0,86,-99.99,,,-99.99,,2013-05-06 23:02:00,
2013-05-06 16:12:00,39.0,36.0,-100.00,South,175,5.0,10.0,89,-99.99,,,-99.99,,2013-05-06 23:12:00,
2013-05-06 16:22:00,39.0,36.0,-100.00,South,175,5.0,10.0,89,-99.99,,,-99.99,,2013-05-06 23:22:00,
2013-05-06 16:31:00,40.0,36.0,-100.00,SSW,198,3.0,7.0,86,-99.99,,,-99.99,,2013-05-06 23:31:00,
2013-05-06 16:41:00,40.0,36.0,-100.00,SSW,198,3.0,7.0,86,-99.99,,,-99.99,,2013-05-06 23:41:00,
2013-05-06 16:52:00,41.0,36.0,-100.00,SSW,193,4.0,9.0,81,-99.99,,,-99.99,,2013-05-06 23:52:00,
2013-05-06 17:01:00,41.0,36.0,-100.00,SSW,193,4.0,9.0,81,-99.99,,,-99.99,,2013-05-07 00:01:00,
2013-05-06 17:11:00,42.0,36.0,-100.00,SSW,208,4.0,7.0,80,-99.99,,,-99.99,,2013-05-07 00:11:00,
2013-05-06 17:21:00,42.0,36.0,-100.00,SSW,208,4.0,7.0,80,-99.99,,,-99.99,,2013-05-07 00:21:00,
2013-05-06 17:31:00,42.0,36.0,-100.00,SSW,208,4.0,7.0,80,-99.99,,,-99.99,,2013-05-07 00:31:00,
2013-05-06 17:41:00,42.0,36.0,-100.00,SSW,208,4.0,7.0,80,-99.99,,,-99.99,,2013-05-07 00:41:00,
2013-05-06 17:52:00,42.0,36.0,-100.00,South,182,4.0,8.0,78,-99.99,,,-99.99,,2013-05-07 00:52:00,
2013-05-06 18:01:00,42.0,36.0,-100.00,South,182,4.0,8.0,78,-99.99,,,-99.99,,2013-05-07 01:01:00,
2013-05-06 18:11:00,43.0,36.0,-100.00,SSW,203,3.0,9.0,78,-99.99,,,-99.99,,2013-05-07 01:11:00,
2013-05-06 18:21:00,43.0,36.0,-100.00,SSW,203,3.0,9.0,78,-99.99,,,-99.99,,2013-05-07 01:21:00,
2013-05-06 18:31:00,42.0,36.0,-100.00,South,191,2.0,5.0,79,-99.99,,,-99.99,,2013-05-07 01:31:00,
2013-05-06 18:42:00,42.0,36.0,-100.00,South,191,2.0,5.0,79,-99.99,,,-99.99,,2013-05-07 01:42:00,
2013-05-06 18:52:00,42.0,37.0,-100.00,WSW,244,3.0,6.0,82,-99.99,,,-99.99,,2013-05-07 01:52:00,
2013-05-06 19:02:00,42.0,37.0,-100.00,WSW,244,3.0,6.0,82,-99.99,,,-99.99,,2013-05-07 02:02:00,
2013-05-06 19:11:00,42.0,37.0,-100.00,ESE,110,2.0,5.0,82,-99.99,,,-99.99,,2013-05-07 02:11:00,
2013-05-06 19:21:00,42.0,37.0,-100.00,ESE,110,2.0,5.0,82,-99.99,,,-99.99,,2013-05-07 02:21:00,
2013-05-06 19:31:00,41.0,35.0,-100.00,SE,145,5.0,11.0,81,-99.99,,,-99.99,,2013-05-07 02:31:00,
2013-05-06 19:41:00,41.0,35.0,-100.00,SE,145,5.0,11.0,81,-99.99,,,-99.99,,2013-05-07 02:41:00,
2013-05-06 19:52:00,40.0,36.0,-100.00,SE,126,3.0,7.0,85,-99.99,,,-99.99,,2013-05-07 02:52:00,
2013-05-06 20:01:00,40.0,36.0,-100.00,SE,126,3.0,7.0,85,-99.99,,,-99.99,,2013-05-07 03:01:00,
2013-05-06 20:11:00,39.0,36.0,-100.00,East,97,2.0,5.0,88,-99.99,,,-99.99,,2013-05-07 03:11:00,
2013-05-06 20:21:00,39.0,36.0,-100.00,East,97,2.0,5.0,88,-99.99,,,-99.99,,2013-05-07 03:21:00,
2013-05-06 20:32:00,39.0,36.0,-100.00,East,97,2.0,5.0,88,-99.99,,,-99.99,,2013-05-07 03:32:00,
2013-05-06 20:42:00,39.0,36.0,-100.00,East,97,2.0,5.0,88,-99.99,,,-99.99,,2013-05-07 03:42:00,
2013-05-06 20:53:00,38.0,35.0,-100.00,ENE,61,2.0,4.0,91,-99.99,,,-99.99,,2013-05-07 03:53:00,
2013-05-06 21:02:00,38.0,35.0,-100.00,ENE,61,2.0,4.0,91,-99.99,,,-99.99,,2013-05-07 04:02:00,
2013-05-06 21:12:00,38.0,36.0,-100.00,NNW,332,1.0,4.0,92,-99.99,,,-99.99,,2013-05-07 04:12:00,
2013-05-06 21:23:00,38.0,36.0,-100.00,NNW,332,1.0,4.0,92,-99.99,,,-99.99,,2013-05-07 04:23:00,
2013-05-06 21:33:00,38.0,35.0,-100.00,SSW,213,2.0,5.0,89,-99.99,,,-99.99,,2013-05-07 04:33:00,
2013-05-06 21:42:00,38.0,35.0,-100.00,SSW,213,2.0,5.0,89,-99.99,,,-99.99,,2013-05-07 04:42:00,
2013-05-06 21:53:00,38.0,35.0,-100.00,SSW,205,2.0,5.0,88,-99.99,,,-99.99,,2013-05-07 04:53:00,
2013-05-06 22:02:00,38.0,35.0,-100.00,SSW,205,2.0,5.0,88,-99.99,,,-99.99,,2013-05-07 05:02:00,
2013-05-06 22:12:00,38.0,35.0,-100.00,SSE,165,2.0,7.0,88,-99.99,,,-99.99,,2013-05-07 05:12:00,
2013-05-06 22:22:00,38.0,35.0,-100.00,SSE,165,2.0,7.0,88,-99.99,,,-99.99,,2013-05-07 05:22:00,
2013-05-06 22:32:00,38.0,35.0,-100.00,West,277,1.0,3.0,90,-99.99,,,-99.99,,2013-05-07 05:32:00,
2013-05-06 22:42:00,38.0,35.0,-100.00,West,277,1.0,3.0,90,-99.99,,,-99.99,,2013-05-07 05:42:00,
2013-05-06 22:52:00,37.0,36.0,-100.00,NNE,25,0.0,2.0,93,-99.99,,,-99.99,,2013-05-07 05:52:00,
2013-05-06 23:02:00,37.0,36.0,-100.00,NNE,25,0.0,2.0,93,-99.99,,,-99.99,,2013-05-07 06:02:00,
2013-05-06 23:12:00,37.0,36.0,-100.00,NE,52,0.0,1.0,93,-99.99,,,-99.99,,2013-05-07 06:12:00,
2013-05-06 23:21:00,37.0,36.0,-100.00,NE,52,0.0,1.0,93,-99.99,,,-99.99,,2013-05-07 06:21:00,
2013-05-06 23:32:00,37.0,36.0,-100.00,SSE,147,0.0,1.0,95,-99.99,,,-99.99,,2013-05-07 06:32:00,
2013-05-06 23:41:00,37.0,36.0,-100.00,SSE,147,0.0,1.0,95,-99.99,,,-99.99,,2013-05-07 06:41:00,
2013-05-06 23:52:00,36.0,35.0,-100.00,West,277,0.0,2.0,95,-99.99,,,-99.99,,2013-05-07 06:52:00,